OPS 4682 DEB, 18784

Orbit data source: Space-Track

OPS 4682 DEB, 18784 is space debris in LEO originally from a launch on Sat, 03 Apr 1965 UTC launched from the Air Force Western Test Range (AFWTR). Debris objects in space refer to the collection of defunct objects orbiting the Earth. Examples of debris include non-operational satellites, rocket bodies, and fragments generated from explosions, collisions, or faulty payload assembly.

Loading next visibility...
Identifier
18784, 1965-027AL
Orbit
LEO
Country
Flag of USUS
Related business
Manufacturer
Unknown
Mission
Spacecraft
Bus & Motor
Unknown
Mass
Unknown
Launch date (UTC)
1965-04-03 (61 years ago)
Launch vehicle
Unknown
Launch site
Air Force Western Test Range (AFWTR)
Object type
Payload
Rocket body
Debris
Shape & HBR
Unknown shape, 0.1 m
Radar Cross Section
Small (<0.1 m²)

Expand to show TLE details & history
Last TLE update: 10 hours ago

TLE from 10 hours ago
0 OPS 4682 DEB
1 18784U 65027AL  26104.48626203  .00000710  00000-0  24248-2 0  9992
2 18784  90.2558   2.9334 0040223 287.8665 255.9672 12.97108008794128
Epoch: 2026-04-14T11:40Z
TLE epoch observation values (Epoch: 2026-04-14T11:40:13.039Z)
Latitude
-3.51903°
Longitude
165.2016°
Altitude
1,284.424 km
Speed
7.21 km/s
True Right ascension
12h 11m 40s
True Declination
-3° 29' 58"
Sunlit
Object was in full shadow at epoch
Visualization orbit readout
Latitude
Unknown
Longitude
Unknown
Altitude
Unknown
Speed
Unknown
Apparent Right ascension
Unknown
Apparent Declination
Unknown
Sunlit
N/A
Visualization observer readout
Local Sidereal Time
04:20:05
Azimuth
Unknown
Elevation
Unknown
Doppler factor
Unknown
Orbital elements
Apogee altitude
1,301.335 km
Perigee altitude
1,239.805 km
Semi-major axis
7,648.707 km
Eccentricity
0.00402
Inclination
90.2558°
RAAN
2.9334°
Arg. of periapsis
287.8665°
True anomaly
255.52058°
Mean anomaly
255.9672°
Eccentric anomaly
255.74384°
Mean motion
3.2446 °/min
Orbital period
110.95 mins
BSTAR
0.0024248
Loading maneuver chart data...
Computing Atmospheric mass density...
Loading historical data...
Loading historical data...
Loading historical data...
Loading historical data...
Loading historical data...
Loading historical data...
Loading historical data...

Documentation

Showing up to 5 results
|